PGT2DM LTAI-LGAV

Flight info

Callsign PGT2DM
Flight time 1h 10m
Altitude 36000
Route LORKO1K/18L LORKO UW79 DAL UN136 RDS UL995 VARIX VARIX1R
Aircraft A320/M-SDE3FGHIRWY/LB1

Departure

Time 2026-05-06 15:40
Airport Antalya International Airport (LTAI)

Arrival

Time 2026-05-06 16:51
Airport Athens Eleftherios Venizelos International Airport (LGAV)
Time Latitude Longitude Altitude Speed Heading
2026-05-06 14:53 36.89745 30.80224 205 ft 0 kts 289°
2026-05-06 15:27 36.89740 30.80245 205 ft 4 kts 284°
2026-05-06 15:27 36.89734 30.80270 202 ft 3 kts 288°
2026-05-06 15:27 36.89727 30.80301 204 ft 4 kts 303°
2026-05-06 15:27 36.89711 30.80314 198 ft 4 kts 354°
2026-05-06 15:28 36.89690 30.80313 205 ft 3 kts
2026-05-06 15:28 36.89665 30.80309 199 ft 2 kts
2026-05-06 15:28 36.89641 30.80305 194 ft 4 kts 10°
2026-05-06 15:28 36.89615 30.80296 205 ft 4 kts 31°
2026-05-06 15:29 36.89598 30.80276 203 ft 4 kts 64°
2026-05-06 15:29 36.89595 30.80246 202 ft 4 kts 102°
2026-05-06 15:29 36.89598 30.80225 200 ft 0 kts 98°
2026-05-06 15:32 36.89595 30.80261 204 ft 14 kts 96°
2026-05-06 15:32 36.89581 30.80411 192 ft 19 kts 96°
2026-05-06 15:33 36.89566 30.80582 192 ft 21 kts 97°
2026-05-06 15:33 36.89608 30.80694 192 ft 15 kts 13°
2026-05-06 15:33 36.89725 30.80713 198 ft 21 kts
2026-05-06 15:33 36.89869 30.80732 192 ft 20 kts
2026-05-06 15:34 36.90000 30.80750 200 ft 18 kts
2026-05-06 15:34 36.90121 30.80767 204 ft 17 kts
2026-05-06 15:34 36.90231 30.80782 195 ft 15 kts
2026-05-06 15:34 36.90334 30.80797 204 ft 14 kts
2026-05-06 15:35 36.90431 30.80809 192 ft 13 kts
2026-05-06 15:35 36.90520 30.80821 197 ft 12 kts
2026-05-06 15:35 36.90604 30.80832 196 ft 12 kts
2026-05-06 15:35 36.90682 30.80842 195 ft 11 kts
2026-05-06 15:36 36.90755 30.80853 191 ft 10 kts
2026-05-06 15:36 36.90825 30.80863 191 ft 13 kts
2026-05-06 15:36 36.90924 30.80877 199 ft 14 kts
2026-05-06 15:36 36.90983 30.80910 206 ft 8 kts 64°
2026-05-06 15:37 36.90984 30.80978 190 ft 7 kts 96°
2026-05-06 15:37 36.90982 30.81001 198 ft 0 kts 96°
2026-05-06 15:38 36.90980 30.81028 195 ft 12 kts 96°
2026-05-06 15:39 36.90967 30.81101 199 ft 7 kts 126°
2026-05-06 15:39 36.90931 30.81116 203 ft 5 kts 179°
2026-05-06 15:39 36.90896 30.81114 194 ft 5 kts 181°
2026-05-06 15:39 36.90865 30.81109 196 ft 6 kts 187°
2026-05-06 15:40 36.90634 30.81075 194 ft 71 kts 186°
2026-05-06 15:40 36.89916 30.80978 199 ft 133 kts 186°
2026-05-06 15:40 36.88869 30.80839 530 ft 155 kts 184°
2026-05-06 15:40 36.87778 30.80893 1254 ft 159 kts 173°
2026-05-06 15:41 36.86689 30.81080 2064 ft 160 kts 172°
2026-05-06 15:41 36.85514 30.81287 2678 ft 183 kts 172°
2026-05-06 15:41 36.84176 30.81526 3305 ft 206 kts 171°
2026-05-06 15:41 36.82698 30.81782 3989 ft 220 kts 171°
2026-05-06 15:42 36.81151 30.82046 4872 ft 228 kts 171°
2026-05-06 15:42 36.79568 30.82446 5684 ft 238 kts 158°
2026-05-06 15:42 36.77988 30.83341 6243 ft 262 kts 153°
2026-05-06 15:42 36.76290 30.84398 6801 ft 282 kts 148°
2026-05-06 15:43 36.74798 30.86012 7577 ft 288 kts 126°
2026-05-06 15:43 36.73846 30.88204 8429 ft 290 kts 105°
2026-05-06 15:43 36.73507 30.90684 9283 ft 293 kts 92°
2026-05-06 15:43 36.73310 30.93232 10147 ft 298 kts 92°
2026-05-06 15:44 36.73105 30.95899 10526 ft 321 kts 92°
2026-05-06 15:44 36.72882 30.98756 10954 ft 339 kts 93°
2026-05-06 15:44 36.72646 31.01710 11660 ft 346 kts 93°
2026-05-06 15:44 36.72474 31.04721 12407 ft 350 kts 84°
2026-05-06 15:45 36.72980 31.07671 13139 ft 349 kts 64°
2026-05-06 15:45 36.74257 31.10170 13868 ft 347 kts 43°
2026-05-06 15:45 36.76180 31.12008 14363 ft 351 kts 23°
2026-05-06 15:45 36.78457 31.12842 15125 ft 344 kts
2026-05-06 15:46 36.80836 31.12851 15886 ft 342 kts 348°
2026-05-06 15:46 36.83079 31.11927 16601 ft 341 kts 330°
2026-05-06 15:46 36.84921 31.10064 17289 ft 343 kts 310°
2026-05-06 15:46 36.86098 31.07460 18003 ft 349 kts 290°
2026-05-06 15:47 36.86555 31.04467 18640 ft 354 kts 280°
2026-05-06 15:47 36.86796 31.01388 19250 ft 359 kts 273°
2026-05-06 15:47 36.86511 30.98259 19834 ft 368 kts 260°
2026-05-06 15:47 36.85624 30.95233 20399 ft 377 kts 248°
2026-05-06 15:48 36.84139 30.92471 20972 ft 389 kts 233°
2026-05-06 15:48 36.82254 30.90008 21527 ft 393 kts 231°
2026-05-06 15:48 36.80365 30.87581 22083 ft 396 kts 231°
2026-05-06 15:48 36.78439 30.85104 22637 ft 399 kts 231°
2026-05-06 15:49 36.76501 30.82615 23175 ft 402 kts 231°
2026-05-06 15:49 36.74557 30.80104 23691 ft 404 kts 233°
2026-05-06 15:49 36.73026 30.77229 24110 ft 393 kts 254°
2026-05-06 15:49 36.72565 30.73950 24520 ft 382 kts 277°
2026-05-06 15:50 36.73229 30.70804 24940 ft 375 kts 300°
2026-05-06 15:50 36.74866 30.68297 25352 ft 376 kts 318°
2026-05-06 15:50 36.76747 30.66023 25765 ft 378 kts 307°
2026-05-06 15:50 36.77874 30.63063 26156 ft 385 kts 285°
2026-05-06 15:51 36.77921 30.59701 26552 ft 397 kts 263°
2026-05-06 15:51 36.76845 30.56470 26928 ft 414 kts 241°
2026-05-06 15:51 36.75131 30.53552 27327 ft 416 kts 242°
2026-05-06 15:51 36.73824 30.50374 27738 ft 409 kts 255°
2026-05-06 15:52 36.73159 30.47012 28175 ft 402 kts 268°
2026-05-06 15:52 36.73198 30.43560 28586 ft 398 kts 279°
2026-05-06 15:52 36.73502 30.40123 29008 ft 400 kts 280°
2026-05-06 15:52 36.73806 30.36659 29329 ft 403 kts 279°
2026-05-06 15:53 36.74107 30.33166 29688 ft 406 kts 279°
2026-05-06 15:53 36.74403 30.29650 29994 ft 409 kts 279°
2026-05-06 15:53 36.74697 30.26113 30324 ft 411 kts 279°
2026-05-06 15:53 36.74991 30.22560 30650 ft 412 kts 279°
2026-05-06 15:54 36.75522 30.19055 30971 ft 410 kts 288°
2026-05-06 15:54 36.76517 30.15737 31294 ft 409 kts 297°
2026-05-06 15:54 36.77841 30.12593 31598 ft 410 kts 299°
2026-05-06 15:54 36.79181 30.09459 31988 ft 408 kts 300°
2026-05-06 15:55 36.80506 30.06347 32478 ft 405 kts 299°
2026-05-06 15:55 36.81722 30.03186 32927 ft 404 kts 292°
2026-05-06 15:55 36.82473 29.99845 33338 ft 406 kts 283°
2026-05-06 15:55 36.82720 29.96321 33679 ft 411 kts 273°
2026-05-06 15:56 36.82454 29.92754 34091 ft 413 kts 267°
2026-05-06 15:56 36.82065 29.89204 34473 ft 412 kts 267°
2026-05-06 15:56 36.81681 29.85664 34816 ft 411 kts 267°
2026-05-06 15:56 36.81299 29.82128 35125 ft 412 kts 267°
2026-05-06 15:57 36.80537 29.75067 35583 ft 411 kts 267°
2026-05-06 15:57 36.80145 29.71532 35851 ft 411 kts 267°
2026-05-06 15:57 36.79742 29.67996 36048 ft 412 kts 266°
2026-05-06 15:58 36.78919 29.60966 36088 ft 408 kts 266°
2026-05-06 15:58 36.78094 29.54023 36091 ft 407 kts 266°
2026-05-06 15:59 36.77274 29.47048 36090 ft 406 kts 267°
2026-05-06 15:59 36.76451 29.40081 36089 ft 406 kts 267°
2026-05-06 16:00 36.75629 29.33125 36087 ft 405 kts 267°
2026-05-06 16:00 36.74945 29.27345 36088 ft 405 kts 267°
2026-05-06 16:01 36.74114 29.20394 36073 ft 405 kts 267°
2026-05-06 16:01 36.73279 29.13441 36078 ft 405 kts 267°
2026-05-06 16:02 36.72436 29.06491 36078 ft 405 kts 267°
2026-05-06 16:02 36.71590 28.99555 36069 ft 405 kts 267°
2026-05-06 16:03 36.70741 28.92613 36067 ft 405 kts 267°
2026-05-06 16:03 36.69896 28.85724 36079 ft 405 kts 266°
2026-05-06 16:04 36.68839 28.78816 36079 ft 412 kts 258°
2026-05-06 16:04 36.67180 28.72054 36077 ft 398 kts 275°
2026-05-06 16:05 36.67867 28.65302 36059 ft 393 kts 282°
2026-05-06 16:05 36.68496 28.58512 36051 ft 395 kts 280°
2026-05-06 16:06 36.69032 28.51680 36047 ft 396 kts 279°
2026-05-06 16:06 36.69577 28.44846 36040 ft 397 kts 280°
2026-05-06 16:07 36.70149 28.38039 36040 ft 397 kts 280°
2026-05-06 16:07 36.70724 28.31193 36032 ft 398 kts 280°
2026-05-06 16:08 36.71291 28.24335 36013 ft 398 kts 279°
2026-05-06 16:08 36.71849 28.17462 36026 ft 398 kts 279°
2026-05-06 16:09 36.72410 28.10560 36049 ft 400 kts 279°
2026-05-06 16:09 36.72967 28.03659 36060 ft 400 kts 279°
2026-05-06 16:10 36.73517 27.96756 36055 ft 400 kts 279°
2026-05-06 16:10 36.74068 27.89854 36062 ft 400 kts 279°
2026-05-06 16:11 36.74610 27.82991 36062 ft 400 kts 279°
2026-05-06 16:11 36.75150 27.76083 36061 ft 400 kts 279°
2026-05-06 16:12 36.75685 27.69171 36068 ft 400 kts 279°
2026-05-06 16:12 36.76220 27.62262 36067 ft 400 kts 279°
2026-05-06 16:13 36.76747 27.55347 36075 ft 400 kts 279°
2026-05-06 16:13 36.77276 27.48435 36066 ft 400 kts 279°
2026-05-06 16:14 36.77798 27.41527 36063 ft 400 kts 279°
2026-05-06 16:14 36.78312 27.34612 36069 ft 400 kts 279°
2026-05-06 16:15 36.78822 27.27746 36075 ft 400 kts 279°
2026-05-06 16:15 36.79339 27.20827 36083 ft 400 kts 279°
2026-05-06 16:16 36.79844 27.13903 36065 ft 401 kts 278°
2026-05-06 16:16 36.80340 27.06976 36069 ft 401 kts 279°
2026-05-06 16:17 36.80843 27.00046 36061 ft 401 kts 278°
2026-05-06 16:17 36.81340 26.93111 36066 ft 401 kts 278°
2026-05-06 16:18 36.81829 26.86177 36058 ft 401 kts 278°
2026-05-06 16:18 36.82310 26.79230 36065 ft 402 kts 278°
2026-05-06 16:19 36.82791 26.72311 36073 ft 402 kts 278°
2026-05-06 16:19 36.84141 26.65626 36076 ft 397 kts 295°
2026-05-06 16:20 36.86330 26.59288 36079 ft 397 kts 295°
2026-05-06 16:20 36.88503 26.52933 36074 ft 398 kts 295°
2026-05-06 16:21 36.90652 26.46609 36077 ft 398 kts 295°
2026-05-06 16:21 36.92822 26.40245 36080 ft 398 kts 295°
2026-05-06 16:22 36.94995 26.33863 36096 ft 399 kts 294°
2026-05-06 16:22 36.97155 26.27475 36084 ft 399 kts 294°
2026-05-06 16:23 36.99316 26.21079 36078 ft 399 kts 294°
2026-05-06 16:23 37.01477 26.14725 36078 ft 399 kts 294°
2026-05-06 16:24 37.03647 26.08317 36095 ft 400 kts 294°
2026-05-06 16:24 37.05814 26.01907 36091 ft 399 kts 294°
2026-05-06 16:25 37.07982 25.95493 36101 ft 399 kts 294°
2026-05-06 16:25 37.10142 25.89081 36086 ft 400 kts 294°
2026-05-06 16:26 37.12278 25.82707 36086 ft 400 kts 294°
2026-05-06 16:26 37.14428 25.76268 36085 ft 400 kts 294°
2026-05-06 16:27 37.16589 25.69811 36091 ft 402 kts 294°
2026-05-06 16:27 37.18747 25.63357 36080 ft 401 kts 294°
2026-05-06 16:28 37.20900 25.56898 36087 ft 402 kts 294°
2026-05-06 16:28 37.23047 25.50425 36083 ft 402 kts 294°
2026-05-06 16:29 37.24112 25.47178 35959 ft 403 kts 294°
2026-05-06 16:29 37.25170 25.43903 35160 ft 407 kts 293°
2026-05-06 16:29 37.26226 25.40590 34393 ft 409 kts 293°
2026-05-06 16:29 37.27279 25.37269 33567 ft 410 kts 293°
2026-05-06 16:30 37.28277 25.33985 33019 ft 405 kts 291°
2026-05-06 16:30 37.28908 25.31741 32595 ft 402 kts 290°
2026-05-06 16:30 37.30072 25.27353 31839 ft 397 kts 290°
2026-05-06 16:30 37.30919 25.24071 31261 ft 394 kts 289°
2026-05-06 16:31 37.31760 25.20815 30696 ft 391 kts 290°
2026-05-06 16:31 37.32607 25.17579 30126 ft 388 kts 290°
2026-05-06 16:31 37.33457 25.14374 29519 ft 384 kts 290°
2026-05-06 16:31 37.34303 25.11206 28970 ft 380 kts 290°
2026-05-06 16:32 37.35144 25.08072 28427 ft 375 kts 291°
2026-05-06 16:32 37.35973 25.04979 27903 ft 371 kts 291°
2026-05-06 16:32 37.36780 25.01961 27391 ft 367 kts 291°
2026-05-06 16:32 37.37589 24.98932 26883 ft 363 kts 291°
2026-05-06 16:33 37.38386 24.95944 26396 ft 359 kts 291°
2026-05-06 16:33 37.39178 24.92978 25922 ft 355 kts 291°
2026-05-06 16:33 37.39958 24.90044 25455 ft 352 kts 291°
2026-05-06 16:34 37.41489 24.84252 24556 ft 346 kts 291°
2026-05-06 16:34 37.42241 24.81395 24102 ft 343 kts 291°
2026-05-06 16:34 37.42993 24.78554 23649 ft 341 kts 291°
2026-05-06 16:34 37.43738 24.75730 23127 ft 339 kts 291°
2026-05-06 16:35 37.44473 24.72934 22659 ft 336 kts 291°
2026-05-06 16:35 37.45194 24.70186 22202 ft 333 kts 291°
2026-05-06 16:35 37.45918 24.67427 21739 ft 331 kts 291°
2026-05-06 16:35 37.46638 24.64684 21270 ft 329 kts 291°
2026-05-06 16:36 37.47356 24.61947 20797 ft 328 kts 291°
2026-05-06 16:36 37.48072 24.59221 20330 ft 327 kts 291°
2026-05-06 16:36 37.48786 24.56498 19855 ft 327 kts 291°
2026-05-06 16:36 37.49496 24.53785 19394 ft 326 kts 290°
2026-05-06 16:37 37.50204 24.51074 18926 ft 326 kts 290°
2026-05-06 16:37 37.50912 24.48364 18465 ft 325 kts 290°
2026-05-06 16:37 37.51621 24.45655 17945 ft 325 kts 290°
2026-05-06 16:37 37.52325 24.42955 17498 ft 323 kts 290°
2026-05-06 16:38 37.53011 24.40304 17052 ft 322 kts 290°
2026-05-06 16:38 37.53703 24.37628 16598 ft 320 kts 290°
2026-05-06 16:38 37.54395 24.34967 16163 ft 319 kts 290°
2026-05-06 16:38 37.55338 24.32457 15725 ft 316 kts 305°
2026-05-06 16:39 37.56784 24.30392 15293 ft 314 kts 320°
2026-05-06 16:39 37.58621 24.28914 14833 ft 315 kts 335°
2026-05-06 16:39 37.60706 24.28036 14376 ft 316 kts 343°
2026-05-06 16:39 37.62823 24.27265 13914 ft 317 kts 343°
2026-05-06 16:40 37.64947 24.26486 13405 ft 318 kts 343°
2026-05-06 16:40 37.67071 24.25704 12931 ft 317 kts 343°
2026-05-06 16:40 37.69190 24.24921 12456 ft 317 kts 343°
2026-05-06 16:40 37.71300 24.24140 11979 ft 316 kts 343°
2026-05-06 16:41 37.73408 24.23361 11503 ft 315 kts 343°
2026-05-06 16:41 37.75515 24.22580 11020 ft 315 kts 343°
2026-05-06 16:41 37.77467 24.21857 10567 ft 315 kts 343°
2026-05-06 16:41 37.78154 24.21603 10417 ft 330 kts 343°
2026-05-06 16:42 37.80464 24.20748 9839 ft 351 kts 343°
2026-05-06 16:42 37.82752 24.19905 9389 ft 330 kts 343°
2026-05-06 16:42 37.84863 24.19131 9235 ft 301 kts 343°
2026-05-06 16:42 37.86799 24.18418 8919 ft 283 kts 343°
2026-05-06 16:43 37.88680 24.17721 8207 ft 280 kts 343°
2026-05-06 16:43 37.90546 24.17027 7497 ft 279 kts 343°
2026-05-06 16:43 37.92392 24.16342 6825 ft 276 kts 343°
2026-05-06 16:43 37.94204 24.15667 6458 ft 262 kts 343°
2026-05-06 16:44 37.95876 24.15046 6328 ft 239 kts 343°
2026-05-06 16:44 37.97437 24.14467 5990 ft 234 kts 342°
2026-05-06 16:44 37.99042 24.13867 5357 ft 246 kts 342°
2026-05-06 16:44 38.00671 24.13258 4896 ft 241 kts 342°
2026-05-06 16:45 38.02231 24.12678 4682 ft 226 kts 343°
2026-05-06 16:45 38.03683 24.12141 4565 ft 209 kts 343°
2026-05-06 16:45 38.05053 24.11635 4493 ft 203 kts 342°
2026-05-06 16:45 38.06353 24.10981 4378 ft 200 kts 324°
2026-05-06 16:46 38.07218 24.09738 4282 ft 179 kts 295°
2026-05-06 16:46 38.07507 24.08332 4189 ft 156 kts 272°
2026-05-06 16:46 38.07342 24.06996 3814 ft 154 kts 249°
2026-05-06 16:46 38.06776 24.05874 3451 ft 150 kts 226°
2026-05-06 16:47 38.05968 24.05068 3122 ft 144 kts 217°
2026-05-06 16:47 38.05195 24.04327 2888 ft 137 kts 217°
2026-05-06 16:47 38.04446 24.03609 2688 ft 133 kts 217°
2026-05-06 16:47 38.03705 24.02902 2507 ft 133 kts 216°
2026-05-06 16:48 38.02970 24.02199 2337 ft 132 kts 217°
2026-05-06 16:48 38.02233 24.01496 2145 ft 133 kts 216°
2026-05-06 16:48 38.01493 24.00796 1946 ft 132 kts 215°
2026-05-06 16:48 38.00754 24.00106 1787 ft 133 kts 215°
2026-05-06 16:49 38.00023 23.99392 1627 ft 132 kts 218°
2026-05-06 16:49 37.99297 23.98649 1375 ft 132 kts 217°
2026-05-06 16:49 37.98552 23.97967 1230 ft 132 kts 216°
2026-05-06 16:49 37.97823 23.97269 1051 ft 132 kts 215°
2026-05-06 16:50 37.97092 23.96578 916 ft 132 kts 216°
2026-05-06 16:50 37.96374 23.95898 735 ft 128 kts 218°
2026-05-06 16:50 37.95654 23.95223 552 ft 130 kts 217°
2026-05-06 16:50 37.95161 23.94749 461 ft 133 kts 216°
2026-05-06 16:51 37.94215 23.93860 308 ft 117 kts 217°
2026-05-06 16:51 37.93643 23.93317 293 ft 82 kts 217°
2026-05-06 16:51 37.93326 23.93010 292 ft 38 kts 217°
2026-05-06 16:51 37.93144 23.92869 289 ft 28 kts 200°
2026-05-06 16:52 37.93027 23.92833 293 ft 18 kts 188°
2026-05-06 16:52 37.92935 23.92844 301 ft 7 kts 128°
2026-05-06 16:52 37.92931 23.92878 299 ft 5 kts 91°
2026-05-06 16:52 37.92934 23.92912 299 ft 3 kts 81°
2026-05-06 16:53 37.92947 23.92927 300 ft 3 kts 41°
2026-05-06 16:53 37.92963 23.92944 299 ft 3 kts 38°
2026-05-06 16:53 37.92979 23.92958 299 ft 3 kts 36°
2026-05-06 16:53 37.93008 23.92985 301 ft 6 kts 36°
2026-05-06 16:54 37.93041 23.93015 302 ft 8 kts 37°
2026-05-06 16:54 37.93129 23.93099 301 ft 18 kts 37°
2026-05-06 16:54 37.93218 23.93183 300 ft 8 kts 36°
2026-05-06 16:54 37.93243 23.93235 300 ft 6 kts 93°
2026-05-06 16:55 37.93223 23.93290 302 ft 8 kts 108°
2026-05-06 16:55 37.93246 23.93350 303 ft 11 kts 44°
2026-05-06 16:55 37.93307 23.93412 300 ft 11 kts 39°
2026-05-06 16:55 37.93366 23.93467 300 ft 10 kts 36°
2026-05-06 16:56 37.93366 23.93548 302 ft 13 kts 121°
2026-05-06 16:56 37.93303 23.93656 301 ft 15 kts 126°